Skip Page Navigation
NASA JPL Caltech
NASA Logo - Jet Propulsion Laboratory + View the NASA Portal
+ Center for Near-Earth Object Studies
JPL Home Earth Solar System Stars & Galaxies Technology
JPL Solar System Dynamics
BODIES ORBITS EPHEMERIDES TOOLS PHYSICAL DATA DISCOVERY FAQ SITE MAP
IMPORTANT: The SSD Announcement email list is now available. Major changes are coming in the near future, including possible hostname and/or URL changes. To be notified of such changes, subscribe to this email list.

Please visit this page for more details.


JPL Small-Body Database Browser
Search: [ help ]  
136627 (1994 PM19)
Classification: Outer Main-belt Asteroid          SPK-ID: 2136627
Ephemeris | Orbit Diagram | Orbital Elements | Mission Design | Physical Parameters | Discovery Circumstances | Close-Approach Data ]

[ show orbit diagram ]
Orbital Elements at Epoch 2459000.5 (2020-May-31.0) TDB
Reference: JPL 18 (heliocentric ecliptic J2000)
 Element Value Uncertainty (1-sigma)   Units 
e .2037869380621086 4.2962e-08  
a 3.212059731002045 3.5288e-08 au
q 2.557483913548538 1.445e-07 au
i 1.194849282541263 5.6443e-06 deg
node 149.0029600370896 0.00023087 deg
peri 148.8275844006338 0.00023129 deg
M 197.8110916260308 1.3337e-05 deg
tp 2459947.810816161180
(2023-Jan-03.31081616)
8.2073e-05 TDB
period 2102.683205880431
5.76
3.4651e-05
9.487e-08
d
yr
n .1712098137242988 2.8214e-09 deg/d
Q 3.866635548455552 4.248e-08 au
  Orbit Determination Parameters
   # obs. used (total)      332  
   data-arc span      9302 days (25.47 yr)  
   first obs. used      1994-08-12  
   last obs. used      2020-01-30  
   planetary ephem.      DE431  
   SB-pert. ephem.      SB431-N16  
   condition code      0  
   norm. resid. RMS      .58606  
   source      ORB  
   producer      Otto Matic  
   solution date      2020-Feb-24 07:41:34  

Additional Information
 Earth MOID = 1.54178 au 
 Jupiter MOID = 1.36301 au 
 T_jup = 3.158 
[ show covariance matrix ]

Ephemeris | Orbit Diagram | Orbital Elements | Mission Design | Physical Parameters | Discovery Circumstances | Close-Approach Data ]

Physical Parameter Table
Parameter Symbol Value Units Sigma Reference Notes
absolute magnitude H 15.7   n/a MPO469437  
diameter diameter 4.719 km 1.332 urn:nasa:pds:neowise_diameters_albedos::2.0[mainbelt] (http://adsabs.harvard.edu/abs/2011ApJ...741...68M)  
geometric albedo albedo 0.042   0.044 urn:nasa:pds:neowise_diameters_albedos::2.0[mainbelt] (http://adsabs.harvard.edu/abs/2011ApJ...741...68M)  

136627 (1994 PM19)          Discovered 1994-Aug-12 by Elst, E. W. at La Silla
Reference: 20061205/Numbers.arcLast Updated: 2006-12-13

[ show close-approach data ]
Alternate Designations
 1994 PM19 = 2000 SK199 
Ephemeris | Orbit Diagram | Orbital Elements | Mission Design | Physical Parameters | Discovery Circumstances | Close-Approach Data ]
ABOUT SSD CREDITS/AWARDS PRIVACY/COPYRIGHT GLOSSARY LINKS
FirstGov 2020-Jun-03 20:28 UT
(server date/time)  
NASA Home Page
Site Manager:   Ryan S. Park
Webmaster  Alan B. Chamberlin